QPF
0.00 0.00 0.00 0.00 0.00 0.00 0.00 0.00 0.01 0.01 0.01 0.00 0.00 0.00 0.00 0.00 0.00 0.00 0.01 0.00 0.00 0.00 0.00 0.00 0.00 0.00 0.00 0.03 0.06 0.03 0.00 0.00 0.00 0.00 0.00 0.00 0.00 0.00 0.01 0.01 0.00 0.00 0.00
0.00 0.00 0.00 0.00 0.01 0.04 0.06 0.02 0.01 0.01 0.00 0.00 0.00 0.00 0.01 0.01 0.00 0.00 0.00 0.00 0.00 0.00 0.00 0.00 0.00 0.00 0.00 0.00 0.01 0.00 0.00 0.02 0.03 0.02 0.00 0.00 0.00 0.01 0.02 0.00 0.00 0.00 0.00
0.00 0.00 0.00 0.03 0.04 0.03 0.02 0.02 0.01 0.00 0.00 0.00 0.00 0.03 0.06 0.00 0.00 0.00 0.00 0.00 0.00 0.00 0.00 0.01 0.00 0.01 0.01 0.01 0.02 0.00 0.01 0.07 0.13 0.10 0.03 0.00 0.00 0.00 0.00 0.00 0.00 0.00 0.00
0.00 0.00 0.00 0.02 0.06 0.02 0.00 0.00 0.00 0.00 0.00 0.00 0.01 0.06 0.03 0.01 0.00 0.00 0.00 0.00 0.00 0.00 0.01 0.03 0.00 0.00 0.00 0.02 0.04 0.02 0.01 0.08 0.06 0.06 0.00 0.00 0.00 0.00 0.00 0.00 0.00 0.00 0.00
0.00 0.00 0.00 0.01 0.01 0.00 0.00 0.01 0.01 0.01 0.07 0.03 0.00 0.00 0.02 0.02 0.01 0.01 0.01 0.00 0.00 0.00 0.00 0.05 0.01 0.00 0.00 0.00 0.00 0.01 0.07 0.09 0.07 0.03 0.00 0.00 0.00 0.01 0.00 0.02 0.01 0.01 0.00
0.00 0.00 0.00 0.00 0.01 0.00 0.00 0.04 0.03 0.01 0.01 0.01 0.00 0.00 0.01 0.00 0.01 0.00 0.00 0.00 0.00 0.00 0.00 0.00 0.00 0.00 0.00 0.00 0.00 0.00 0.05 0.13 0.15 0.02 0.00 0.01 0.00 0.03 0.00 0.00 0.00 0.00 0.00
0.00 0.00 0.00 0.00 0.01 0.00 0.01 0.03 0.00 0.00 0.00 0.00 0.00 0.00 0.00 0.00 0.00 0.00 0.00 0.00 0.00 0.00 0.00 0.00 0.00 0.00 0.00 0.00 0.00 0.00 0.05 0.19 0.04 0.01 0.00 0.00 0.01 0.05 0.00 0.00 0.00 0.00 0.00
0.00 0.00 0.00 0.00 0.01 0.00 0.01 0.01 0.00 0.00 0.00 0.00 0.00 0.00 0.00 0.00 0.00 0.00 0.00 0.00 0.00 0.00 0.00 0.00 0.00 0.00 0.00 0.00 0.00 0.00 0.07 0.10 0.03 0.00 0.00 0.00 0.03 0.05 0.00 0.00 0.00 0.00 0.01
0.00 0.00 0.00 0.00 0.00 0.00 0.01 0.00 0.00 0.00 0.00 0.00 0.00 0.00 0.01 0.00 0.00 0.00 0.00 0.00 0.00 0.00 0.00 0.00 0.00 0.00 0.00 0.00 0.00 0.00 0.01 0.02 0.01 0.00 0.00 0.00 0.03 0.02 0.00 0.00 0.00 0.00 0.00
0.00 0.00 0.00 0.00 0.00 0.00 0.00 0.00 0.00 0.00 0.00 0.00 0.00 0.02 0.09 0.02 0.00 0.00 0.00 0.00 0.00 0.00 0.00 0.00 0.00 0.00 0.00 0.00 0.00 0.00 0.03 0.04 0.00 0.00 0.00 0.00 0.02 0.01 0.00 0.00 0.01 0.00 0.01
0.00 0.00 0.00 0.00 0.00 0.00 0.00 0.00 0.00 0.00 0.00 0.01 0.03 0.05 0.02 0.01 0.00 0.00 0.00 0.00 0.00 0.00 0.00 0.00 0.00 0.00 0.00 0.00 0.00 0.01 0.01 0.01 0.00 0.00 0.00 0.00 0.01 0.01 0.00 0.00 0.00 0.00 0.00
0.00 0.00 0.00 0.00 0.00 0.00 0.00 0.00 0.00 0.00 0.00 0.01 0.03 0.02 0.01 0.02 0.00 0.00 0.00 0.00 0.00 0.00 0.00 0.00 0.00 0.00 0.00 0.00 0.01 0.02 0.02 0.00 0.00 0.00 0.00 0.00 0.00 0.00 0.00 0.00 0.00 0.00 0.00
0.00 0.00 0.00 0.00 0.00 0.00 0.00 0.00 0.00 0.00 0.00 0.00 0.03 0.01 0.01 0.00 0.00 0.00 0.01 0.01 0.00 0.03 0.03 0.00 0.01 0.00 0.00 0.00 0.02 0.06 0.05 0.00 0.01 0.00 0.00 0.00 0.00 0.00 0.00 0.00 0.00 0.00 0.00
0.00 0.00 0.00 0.00 0.00 0.00 0.00 0.00 0.00 0.00 0.01 0.00 0.02 0.03 0.03 0.01 0.01 0.01 0.03 0.17 0.09 0.06 0.05 0.02 0.01 0.00 0.00 0.01 0.00 0.00 0.01 0.00 0.00 0.00 0.00 0.00 0.00 0.00 0.00 0.00 0.00 0.00 0.00
0.00 0.00 0.00 0.00 0.00 0.00 0.00 0.00 0.00 0.01 0.01 0.00 0.00 0.03 0.02 0.03 0.00 0.03 0.05 0.09 0.05 0.06 0.03 0.02 0.01 0.01 0.01 0.01 0.00 0.00 0.00 0.00 0.00 0.00 0.00 0.00 0.00 0.00 0.00 0.00 0.00 0.00 0.00
0.00 0.00 0.00 0.00 0.00 0.00 0.00 0.00 0.00 0.00 0.00 0.00 0.00 0.02 0.01 0.03 0.01 0.05 0.02 0.04 0.03 0.05 0.02 0.02 0.00 0.00 0.00 0.00 0.00 0.00 0.00 0.00 0.00 0.00 0.00 0.00 0.00 0.00 0.00 0.00 0.00 0.00 0.00
0.00 0.00 0.00 0.00 0.00 0.00 0.00 0.00 0.00 0.00 0.01 0.00 0.00 0.01 0.02 0.07 0.03 0.03 0.03 0.03 0.02 0.01 0.01 0.00 0.01 0.00 0.00 0.00 0.00 0.00 0.00 0.00 0.00 0.00 0.00 0.00 0.00 0.00 0.00 0.00 0.00 0.00 0.00
0.00 0.00 0.00 0.00 0.00 0.00 0.00 0.00 0.00 0.00 0.01 0.00 0.00 0.01 0.01 0.04 0.04 0.02 0.00 0.01 0.01 0.01 0.00 0.00 0.00 0.00 0.00 0.00 0.00 0.00 0.00 0.00 0.00 0.00 0.00 0.00 0.00 0.00 0.00 0.00 0.00 0.00 0.00
0.00 0.00 0.00 0.00 0.00 0.00 0.00 0.00 0.00 0.00 0.00 0.00 0.00 0.00 0.00 0.00 0.01 0.02 0.01 0.03 0.00 0.01 0.00 0.00 0.00 0.00 0.00 0.00 0.00 0.00 0.00 0.00 0.00 0.00 0.00 0.00 0.00 0.00 0.00 0.00 0.00 0.00 0.00
0.00 0.00 0.00 0.00 0.00 0.00 0.00 0.00 0.00 0.00 0.00 0.00 0.00 0.00 0.01 0.00 0.01 0.00 0.00 0.01 0.02 0.02 0.01 0.00 0.00 0.00 0.00 0.00 0.00 0.00 0.00 0.00 0.00 0.00 0.00 0.00 0.00 0.00 0.00 0.00 0.00 0.00 0.00
0.00 0.00 0.00 0.00 0.00 0.00 0.00 0.00 0.00 0.00 0.00 0.00 0.00 0.01 0.00 0.00 0.01 0.00 0.00 0.01 0.04 0.00 0.01 0.00 0.01 0.00 0.00 0.00 0.00 0.00 0.00 0.00 0.00 0.00 0.00 0.00 0.00 0.00 0.00 0.00 0.00 0.00 0.00
0.00 0.00 0.00 0.00 0.00 0.00 0.00 0.00 0.00 0.00 0.00 0.00 0.00 0.02 0.00 0.00 0.01 0.00 0.01 0.03 0.03 0.00 0.00 0.03 0.01 0.00 0.00 0.00 0.00 0.00 0.00 0.00 0.00 0.00 0.00 0.00 0.00 0.00 0.00 0.00 0.00 0.00 0.00
0.00 0.00 0.00 0.00 0.00 0.00 0.00 0.00 0.00 0.00 0.00 0.00 0.01 0.00 0.00 0.00 0.00 0.02 0.01 0.03 0.00 0.01 0.00 0.00 0.00 0.00 0.00 0.00 0.00 0.00 0.00 0.00 0.00 0.00 0.00 0.00 0.00 0.00 0.00 0.00 0.00 0.00 0.00
0.00 0.00 0.00 0.00 0.00 0.00 0.00 0.00 0.00 0.00 0.00 0.00 0.00 0.00 0.00 0.00 0.00 0.00 0.01 0.01 0.00 0.00 0.00 0.00 0.00 0.00 0.00 0.00 0.00 0.00 0.00 0.00 0.00 0.00 0.00 0.00 0.00 0.00 0.00 0.00 0.00 0.00 0.00
0.00 0.00 0.00 0.00 0.00 0.00 0.00 0.00 0.00 0.00 0.00 0.00 0.00 0.00 0.00 0.00 0.00 0.00 0.00 0.00 0.00 0.00 0.00 0.00 0.00 0.00 0.00 0.00 0.00 0.00 0.00 0.00 0.00 0.00 0.00 0.00 0.00 0.00 0.00 0.00 0.00 0.00 0.00
0.00 0.00 0.00 0.00 0.00 0.00 0.00 0.00 0.00 0.00 0.00 0.00 0.00 0.00 0.00 0.00 0.00 0.00 0.01 0.00 0.01 0.00 0.01 0.00 0.00 0.00 0.00 0.00 0.00 0.00 0.00 0.00 0.00 0.00 0.00 0.00 0.00 0.00 0.00 0.00 0.00 0.00 0.00
MSLP
1015.07 1015.20 1015.42 1015.57 1015.87 1016.17 1016.36 1016.46 1016.48 1016.67 1016.78 1017.11 1017.32 1017.52 1017.60 1017.68 1017.82 1017.96 1017.98 1018.04 1018.00 1017.93 1017.91 1017.99 1018.22 1018.32 1018.39 1018.36 1018.47 1018.55 1018.58 1018.58 1018.64 1018.80 1018.83 1018.92 1018.92 1019.03 1019.02 1019.20 1019.52 1019.54 1019.72
1014.41 1015.13 1015.38 1015.60 1015.90 1016.21 1016.45 1016.56 1016.64 1016.80 1017.08 1017.26 1017.45 1017.66 1017.78 1017.87 1017.92 1018.00 1018.04 1018.10 1018.07 1018.01 1018.04 1018.14 1018.33 1018.55 1018.70 1018.64 1018.55 1018.72 1018.79 1018.93 1018.95 1018.88 1018.96 1019.07 1019.24 1019.44 1019.50 1019.70 1019.82 1019.85 1019.98
1014.55 1015.08 1015.42 1015.60 1015.91 1016.21 1016.45 1016.67 1016.89 1017.00 1017.21 1017.38 1017.55 1017.75 1017.88 1017.96 1017.98 1018.00 1018.04 1018.10 1018.12 1018.13 1018.20 1018.29 1018.43 1018.50 1018.69 1018.78 1018.79 1018.81 1019.00 1019.18 1019.26 1019.27 1019.32 1019.61 1019.81 1019.86 1019.91 1019.93 1020.08 1020.28 1020.36
1014.36 1015.09 1015.49 1015.82 1015.97 1016.19 1016.50 1016.73 1016.94 1017.13 1017.31 1017.51 1017.66 1017.84 1017.96 1017.97 1017.97 1018.04 1018.10 1018.22 1018.23 1018.28 1018.38 1018.38 1018.58 1018.77 1018.96 1019.07 1019.09 1019.12 1019.24 1019.41 1019.32 1019.38 1019.56 1019.84 1019.98 1020.19 1020.27 1020.28 1020.52 1020.67 1020.79
1014.35 1015.06 1015.58 1015.88 1016.01 1016.26 1016.52 1016.72 1016.90 1017.20 1017.40 1017.64 1017.80 1017.92 1017.98 1018.01 1018.12 1018.22 1018.23 1018.31 1018.32 1018.41 1018.52 1018.65 1018.70 1018.99 1019.18 1019.22 1019.33 1019.40 1019.43 1019.41 1019.47 1019.56 1019.94 1020.23 1020.40 1020.54 1020.52 1020.64 1020.83 1021.01 1020.98
1014.49 1015.12 1015.66 1015.86 1016.08 1016.33 1016.54 1016.74 1017.02 1017.33 1017.58 1017.81 1017.90 1017.94 1018.04 1018.25 1018.26 1018.27 1018.35 1018.50 1018.56 1018.68 1018.74 1018.83 1018.90 1019.00 1019.24 1019.34 1019.44 1019.39 1019.46 1019.57 1019.60 1020.07 1020.28 1020.56 1020.74 1020.85 1020.86 1020.96 1021.11 1021.20 1021.16
1014.62 1015.23 1015.70 1015.98 1016.17 1016.50 1016.72 1016.94 1017.20 1017.40 1017.64 1017.80 1017.87 1018.05 1018.22 1018.32 1018.30 1018.44 1018.58 1018.77 1018.95 1018.95 1019.02 1019.03 1019.03 1019.07 1019.24 1019.50 1019.62 1019.66 1019.64 1019.68 1020.04 1020.43 1020.62 1020.88 1020.99 1021.06 1021.12 1021.31 1021.40 1021.45 1021.52
1014.58 1015.35 1015.77 1016.11 1016.35 1016.66 1016.97 1017.10 1017.26 1017.53 1017.71 1017.86 1018.04 1018.23 1018.37 1018.42 1018.56 1018.68 1018.83 1018.94 1018.96 1019.16 1019.16 1019.23 1019.32 1019.35 1019.51 1019.64 1019.78 1019.94 1020.11 1020.04 1020.27 1020.54 1020.87 1021.14 1021.29 1021.25 1021.37 1021.56 1021.65 1021.72 1021.85
1014.49 1015.34 1015.95 1016.20 1016.48 1016.84 1017.12 1017.24 1017.41 1017.65 1017.85 1018.06 1018.19 1018.44 1018.46 1018.49 1018.71 1018.87 1018.97 1019.08 1019.15 1019.23 1019.24 1019.44 1019.48 1019.64 1019.66 1019.60 1020.03 1020.30 1020.22 1020.18 1020.54 1020.78 1021.02 1021.35 1021.48 1021.54 1021.65 1021.75 1021.90 1022.01 1022.04
1014.72 1015.20 1015.95 1016.30 1016.67 1017.04 1017.21 1017.37 1017.62 1017.70 1017.99 1018.24 1018.38 1018.57 1018.65 1018.56 1018.80 1019.03 1019.22 1019.38 1019.39 1019.41 1019.39 1019.52 1019.66 1019.80 1019.83 1020.10 1020.24 1020.43 1020.47 1020.61 1020.69 1020.94 1021.32 1021.58 1021.74 1021.74 1021.82 1021.97 1022.12 1022.25 1022.21
1014.64 1015.05 1015.70 1016.24 1016.72 1017.04 1017.31 1017.47 1017.66 1017.76 1018.10 1018.33 1018.45 1018.70 1018.78 1018.91 1019.10 1019.20 1019.48 1019.62 1019.47 1019.64 1019.78 1019.73 1019.84 1020.11 1020.10 1020.22 1020.38 1020.62 1020.53 1020.86 1021.03 1021.31 1021.60 1021.69 1021.82 1021.90 1022.06 1022.24 1022.30 1022.33 1022.40
1014.24 1014.85 1015.37 1015.95 1016.51 1016.80 1017.00 1017.52 1017.67 1017.80 1018.26 1018.50 1018.54 1018.84 1019.15 1019.24 1019.39 1019.45 1019.69 1019.67 1019.88 1019.82 1019.83 1019.93 1019.92 1019.97 1020.08 1020.26 1020.60 1020.86 1020.75 1020.97 1021.28 1021.56 1021.69 1021.85 1021.98 1022.08 1022.22 1022.34 1022.46 1022.52 1022.57
1013.49 1014.37 1015.09 1015.63 1016.24 1016.46 1016.79 1017.34 1017.69 1017.92 1018.28 1018.39 1018.63 1018.72 1019.05 1019.32 1019.49 1019.74 1020.16 1020.18 1020.35 1020.51 1020.39 1020.27 1020.18 1019.71 1019.97 1020.23 1020.47 1021.08 1021.00 1021.34 1021.69 1021.74 1021.89 1022.05 1022.10 1022.21 1022.32 1022.43 1022.58 1022.60 1022.69
1013.16 1013.97 1014.73 1015.14 1015.78 1016.19 1016.63 1017.04 1017.43 1017.60 1017.95 1018.34 1018.63 1018.70 1019.00 1019.67 1019.66 1020.01 1020.26 1020.51 1021.26 1020.89 1020.59 1020.60 1020.35 1020.24 1020.33 1020.18 1020.18 1020.23 1020.84 1021.40 1021.82 1021.91 1022.02 1022.06 1022.19 1022.33 1022.45 1022.56 1022.68 1022.72 1022.84
1013.03 1013.84 1014.52 1015.20 1015.55 1015.85 1016.46 1017.08 1017.45 1017.37 1017.84 1018.12 1018.32 1018.81 1019.30 1019.24 1019.67 1020.06 1020.24 1020.28 1020.86 1020.73 1020.90 1020.87 1020.47 1020.43 1020.53 1020.62 1020.38 1020.06 1020.85 1021.32 1021.69 1021.90 1022.12 1022.11 1022.23 1022.49 1022.49 1022.63 1022.77 1022.73 1022.88
1012.87 1013.63 1014.28 1014.87 1015.28 1015.85 1016.56 1016.49 1016.83 1017.26 1017.72 1017.86 1018.18 1018.17 1018.79 1019.24 1019.36 1020.36 1020.19 1020.13 1020.53 1020.71 1020.45 1020.82 1020.64 1020.55 1020.64 1020.53 1020.44 1020.63 1020.87 1021.34 1021.62 1021.96 1022.18 1022.27 1022.40 1022.58 1022.60 1022.71 1022.76 1022.76 1022.90
1012.83 1013.50 1014.18 1014.76 1015.00 1015.89 1016.14 1016.39 1017.11 1017.02 1017.26 1017.81 1018.07 1018.28 1018.77 1019.00 1019.25 1019.50 1020.09 1020.18 1020.24 1019.97 1019.88 1020.45 1020.84 1020.76 1020.80 1020.63 1020.62 1020.65 1021.06 1021.28 1021.37 1021.73 1021.99 1022.26 1022.36 1022.56 1022.69 1022.80 1022.77 1022.74 1022.76
1013.03 1013.70 1014.05 1014.64 1015.18 1015.98 1016.08 1016.59 1017.05 1017.08 1017.23 1017.75 1018.00 1018.36 1018.76 1018.86 1019.00 1019.55 1019.92 1020.00 1019.75 1019.96 1019.94 1020.32 1020.46 1021.13 1021.02 1021.10 1020.80 1020.76 1021.27 1021.18 1021.18 1021.62 1021.92 1022.03 1022.21 1022.33 1022.51 1022.63 1022.69 1022.68 1022.73
1012.81 1013.65 1014.12 1014.60 1015.32 1016.01 1016.18 1016.58 1016.78 1017.22 1017.50 1017.64 1017.80 1018.27 1018.49 1018.73 1019.07 1019.33 1019.85 1019.99 1019.80 1020.04 1019.89 1020.23 1020.68 1020.87 1021.20 1021.38 1021.13 1021.24 1021.24 1021.10 1021.04 1021.28 1021.62 1021.82 1022.08 1022.22 1022.41 1022.44 1022.50 1022.74 1022.75
1012.62 1013.45 1013.98 1014.64 1015.30 1015.97 1016.41 1016.57 1016.80 1016.99 1017.41 1017.73 1017.96 1018.33 1018.48 1018.66 1019.06 1019.41 1019.63 1019.76 1019.90 1020.06 1020.32 1020.50 1020.72 1021.02 1021.12 1020.93 1021.10 1021.20 1021.36 1021.20 1021.20 1021.31 1021.48 1021.56 1021.67 1021.63 1022.05 1022.23 1022.46 1022.53 1022.52
1012.44 1013.21 1013.91 1014.68 1015.28 1015.98 1016.49 1016.89 1017.25 1017.68 1017.62 1017.93 1018.00 1018.20 1018.31 1018.74 1019.04 1019.41 1019.66 1019.83 1020.02 1020.47 1020.34 1020.48 1021.01 1021.01 1021.07 1021.09 1021.52 1021.76 1021.73 1021.38 1021.17 1021.31 1021.30 1021.33 1021.50 1021.50 1021.65 1021.90 1022.29 1022.32 1022.27
1012.15 1012.96 1013.76 1014.42 1015.13 1015.76 1016.41 1016.66 1017.00 1017.20 1017.37 1017.54 1017.71 1018.08 1018.18 1018.52 1018.98 1019.18 1019.50 1019.78 1019.87 1020.20 1020.52 1020.66 1020.81 1021.24 1021.44 1021.35 1021.93 1021.98 1022.31 1021.90 1021.39 1021.14 1021.00 1021.17 1021.31 1021.22 1021.37 1021.50 1021.70 1021.90 1021.93
1011.86 1012.66 1013.37 1014.05 1014.84 1015.42 1016.04 1016.53 1016.84 1017.09 1017.28 1017.83 1018.00 1018.21 1018.18 1018.24 1018.60 1018.84 1019.29 1019.46 1019.89 1020.00 1020.44 1020.58 1020.60 1020.89 1021.52 1021.42 1021.37 1021.66 1022.40 1022.14 1021.70 1021.24 1021.04 1020.91 1021.07 1021.12 1021.00 1021.00 1021.13 1021.27 1021.52
1011.53 1012.26 1013.05 1013.78 1014.52 1015.08 1015.59 1016.13 1016.62 1016.84 1017.10 1017.42 1017.62 1017.86 1017.92 1017.88 1018.15 1018.55 1018.93 1019.18 1019.59 1020.04 1020.41 1020.35 1020.26 1020.66 1021.30 1021.52 1021.42 1021.30 1021.38 1021.61 1021.81 1022.11 1021.36 1021.09 1020.84 1020.88 1020.84 1020.89 1020.82 1020.83 1020.98
1011.11 1011.92 1012.54 1013.44 1014.20 1014.72 1015.23 1015.65 1016.20 1016.59 1016.58 1016.78 1017.22 1017.59 1017.78 1017.83 1017.87 1018.24 1018.72 1019.07 1019.43 1019.84 1020.10 1020.28 1020.39 1020.70 1020.95 1021.40 1021.49 1021.51 1021.45 1021.37 1021.38 1021.82 1021.73 1021.54 1021.28 1020.83 1020.59 1020.52 1020.46 1020.62 1020.62
1010.66 1011.55 1012.25 1012.98 1013.80 1014.26 1014.80 1015.25 1015.69 1016.15 1016.29 1016.54 1016.98 1017.42 1017.54 1017.82 1017.92 1017.98 1018.37 1018.86 1019.16 1019.48 1019.86 1020.08 1020.11 1020.61 1020.77 1020.97 1021.10 1021.20 1021.28 1021.28 1021.31 1021.32 1021.42 1021.37 1021.39 1020.86 1020.36 1020.06 1020.28 1020.26 1020.26
Thickness
5765 5765 5763 5762 5759 5756 5754 5753 5754 5753 5753 5750 5748 5747 5747 5748 5747 5746 5747 5747 5747 5748 5749 5748 5745 5743 5743 5744 5742 5741 5742 5743 5745 5744 5745 5746 5746 5746 5746 5744 5741 5740 5739
5773 5767 5765 5763 5760 5757 5754 5754 5754 5754 5753 5753 5751 5748 5748 5748 5749 5749 5748 5748 5748 5750 5750 5749 5746 5743 5741 5742 5743 5741 5741 5741 5743 5746 5747 5746 5746 5744 5743 5741 5739 5739 5738
5774 5768 5765 5764 5761 5758 5757 5756 5755 5755 5754 5753 5752 5751 5750 5750 5750 5749 5749 5749 5749 5749 5749 5748 5747 5746 5744 5743 5743 5743 5742 5738 5738 5742 5744 5743 5741 5741 5741 5740 5739 5737 5737
5775 5770 5766 5764 5762 5760 5759 5758 5757 5756 5755 5754 5753 5752 5752 5751 5751 5750 5749 5749 5749 5748 5748 5749 5747 5745 5743 5742 5742 5742 5741 5740 5740 5742 5744 5742 5742 5740 5739 5739 5737 5735 5734
5777 5771 5767 5764 5763 5762 5761 5761 5760 5758 5756 5755 5754 5754 5754 5752 5751 5750 5750 5750 5749 5748 5748 5748 5747 5744 5742 5742 5742 5741 5741 5742 5742 5743 5743 5742 5741 5738 5739 5738 5736 5734 5734
5778 5772 5768 5766 5764 5763 5763 5763 5761 5759 5757 5755 5756 5755 5754 5751 5751 5751 5750 5749 5748 5747 5747 5747 5747 5747 5744 5743 5742 5743 5743 5741 5742 5741 5742 5740 5739 5737 5737 5736 5735 5734 5734
5779 5773 5769 5766 5765 5764 5763 5763 5761 5760 5759 5758 5758 5755 5754 5753 5752 5751 5749 5747 5746 5747 5747 5748 5749 5749 5747 5744 5743 5743 5743 5743 5743 5742 5741 5739 5738 5737 5736 5734 5734 5734 5734
5781 5774 5771 5767 5766 5765 5764 5764 5763 5762 5761 5760 5757 5757 5755 5755 5753 5751 5749 5748 5749 5747 5749 5749 5748 5748 5746 5745 5743 5742 5741 5741 5742 5741 5741 5738 5736 5736 5735 5734 5734 5733 5733
5782 5776 5771 5769 5767 5765 5765 5765 5764 5764 5763 5761 5759 5757 5758 5757 5755 5752 5752 5751 5751 5750 5752 5750 5750 5748 5747 5747 5744 5741 5742 5742 5742 5741 5740 5737 5735 5734 5734 5734 5734 5732 5732
5782 5778 5772 5770 5769 5766 5765 5765 5765 5765 5763 5761 5759 5759 5759 5760 5757 5755 5753 5751 5751 5752 5753 5751 5750 5749 5749 5746 5744 5742 5741 5741 5742 5741 5739 5736 5734 5734 5735 5734 5732 5730 5730
5782 5781 5776 5772 5770 5768 5767 5766 5766 5766 5765 5764 5762 5761 5761 5760 5758 5758 5755 5751 5753 5750 5749 5750 5749 5747 5748 5748 5746 5742 5742 5741 5742 5740 5737 5736 5735 5735 5734 5733 5731 5730 5729
5782 5782 5781 5776 5773 5771 5770 5769 5769 5768 5766 5765 5764 5762 5760 5761 5758 5758 5756 5754 5751 5752 5754 5754 5755 5753 5751 5750 5747 5745 5745 5743 5742 5739 5739 5737 5736 5735 5734 5733 5731 5731 5731
5791 5787 5784 5780 5777 5776 5775 5773 5771 5769 5767 5767 5766 5767 5763 5762 5760 5759 5754 5751 5750 5750 5752 5754 5757 5759 5755 5753 5752 5745 5747 5743 5741 5741 5740 5737 5737 5737 5736 5734 5733 5733 5733
5795 5791 5788 5785 5782 5780 5778 5776 5773 5773 5771 5770 5769 5769 5769 5763 5762 5756 5756 5751 5745 5749 5753 5754 5757 5756 5754 5755 5755 5753 5749 5745 5743 5743 5742 5740 5740 5739 5738 5737 5736 5736 5736
5796 5793 5791 5787 5786 5785 5782 5778 5775 5778 5774 5775 5774 5771 5768 5768 5763 5758 5759 5758 5750 5752 5753 5753 5756 5756 5755 5753 5755 5756 5750 5748 5747 5745 5745 5744 5743 5741 5741 5740 5739 5740 5737
5800 5795 5794 5791 5789 5786 5784 5784 5783 5782 5778 5778 5777 5777 5773 5770 5766 5757 5760 5759 5756 5755 5758 5756 5757 5757 5755 5756 5758 5755 5755 5752 5750 5749 5748 5747 5746 5744 5744 5743 5743 5743 5741
5799 5797 5795 5792 5791 5787 5788 5786 5782 5784 5784 5780 5779 5779 5776 5774 5770 5768 5763 5760 5760 5764 5765 5761 5757 5756 5757 5758 5759 5759 5757 5756 5755 5753 5752 5750 5749 5747 5746 5745 5746 5747 5747
5799 5795 5797 5796 5793 5788 5790 5787 5783 5785 5787 5780 5780 5779 5776 5776 5773 5769 5766 5766 5767 5765 5764 5764 5762 5758 5758 5758 5761 5762 5758 5759 5759 5757 5756 5755 5754 5752 5750 5750 5750 5751 5751
5801 5797 5796 5795 5792 5789 5789 5788 5788 5785 5783 5784 5783 5780 5779 5774 5774 5774 5770 5768 5768 5766 5767 5764 5762 5762 5759 5759 5762 5762 5762 5764 5764 5763 5761 5761 5759 5757 5756 5756 5756 5754 5754
5803 5799 5798 5796 5793 5791 5789 5789 5789 5789 5785 5784 5783 5780 5779 5778 5777 5776 5774 5773 5772 5771 5767 5766 5765 5765 5764 5767 5766 5766 5766 5767 5767 5767 5766 5765 5766 5767 5764 5762 5760 5759 5758
5804 5800 5798 5795 5794 5791 5788 5786 5784 5783 5786 5787 5785 5783 5782 5780 5778 5778 5777 5774 5775 5769 5770 5771 5766 5767 5767 5769 5762 5761 5765 5770 5772 5770 5771 5771 5771 5771 5771 5768 5764 5764 5764
5804 5801 5798 5797 5796 5794 5791 5791 5790 5789 5790 5791 5790 5786 5785 5784 5781 5781 5780 5778 5778 5775 5773 5773 5771 5767 5766 5769 5760 5759 5750 5760 5771 5776 5776 5777 5776 5774 5776 5773 5771 5769 5770
5803 5801 5800 5799 5797 5798 5796 5794 5793 5793 5791 5787 5789 5788 5788 5788 5787 5786 5783 5783 5780 5778 5776 5776 5775 5773 5765 5770 5773 5764 5748 5750 5763 5777 5780 5779 5779 5780 5782 5780 5778 5777 5775
5803 5805 5803 5801 5799 5799 5800 5797 5794 5791 5789 5791 5793 5794 5794 5794 5793 5790 5789 5788 5784 5782 5779 5779 5780 5778 5772 5767 5773 5777 5774 5771 5760 5758 5776 5779 5784 5782 5784 5783 5783 5783 5780
5805 5804 5805 5802 5801 5802 5801 5800 5797 5795 5798 5800 5797 5795 5796 5796 5797 5795 5792 5789 5787 5785 5783 5782 5781 5779 5778 5773 5773 5774 5775 5777 5778 5768 5765 5771 5780 5783 5787 5787 5788 5787 5786
5806 5804 5805 5804 5802 5804 5803 5802 5801 5799 5800 5801 5799 5796 5797 5797 5798 5798 5796 5793 5792 5789 5787 5786 5784 5783 5781 5781 5780 5781 5779 5778 5777 5777 5773 5775 5773 5783 5791 5792 5791 5793 5792